This is the latest recevied weather packets stored in our database for station/object CT1ETE-13. If no packets are shown the sender has not sent any weather packets the latest 10 day(s).
| Time | Temp. | Humidity | Pressure | Rain* | Wind** | Luminosity | Snow |
|---|---|---|---|---|---|---|---|
| 1787433520 | 19.44° C | 69% | 1014.2 hPa | 0 mm | - | - | - |
| 1787432560 | 19.44° C | 69% | 1014.2 hPa | 0 mm | - | - | - |
| 1787431660 | 19.44° C | 68% | 1014 hPa | 0 mm | - | - | - |
| 1787430758 | 20° C | 67% | 1013.8 hPa | 0 mm | - | - | - |
| 1787429857 | 20° C | 66% | 1013.8 hPa | 0 mm | - | - | - |
| 1787428957 | 20.56° C | 65% | 1013.7 hPa | 0 mm | - | - | - |
| 1787428058 | 20.56° C | 63% | 1013.7 hPa | 0 mm | - | - | - |
| 1787427157 | 21.11° C | 62% | 1013.6 hPa | 0 mm | - | - | - |
| 1787426255 | 21.67° C | 61% | 1013.5 hPa | 0 mm | - | - | - |
| 1787425355 | 21.67° C | 61% | 1013.4 hPa | 0 mm | - | - | - |
| 1787424455 | 21.67° C | 59% | 1013.4 hPa | 0 mm | - | - | - |
| 1787423620 | 22.22° C | 58% | 1013.2 hPa | 0 mm | - | - | - |
| 1787422656 | 22.78° C | 57% | 1013.4 hPa | 0 mm | - | - | - |
| 1787421753 | 23.33° C | 54% | 1013.6 hPa | 0 mm | - | - | - |
| 1787420854 | 23.89° C | 55% | 1013.7 hPa | 0 mm | - | - | - |
| 1787419952 | 23.33° C | 55% | 1013.7 hPa | 0 mm | - | - | - |
| 1787419052 | 23.89° C | 55% | 1013.7 hPa | 0 mm | - | - | - |
| 1787418211 | 23.89° C | 55% | 1013.7 hPa | 0 mm | - | - | - |
| 1787417251 | 23.89° C | 55% | 1013.7 hPa | 0 mm | - | - | - |
| 1787416411 | 24.44° C | 55% | 1013.5 hPa | 0 mm | - | - | - |
| 1787415462 | 24.44° C | 55% | 1013.5 hPa | 0 mm | - | - | - |
| 1787414549 | 24.44° C | 55% | 1013.5 hPa | 0 mm | - | - | - |
| 1787413649 | 24.44° C | 56% | 1013.6 hPa | 0 mm | - | - | - |
| 1787412749 | 24.44° C | 57% | 1013.5 hPa | 0 mm | - | - | - |
| 1787411849 | 24.44° C | 57% | 1013.4 hPa | 0 mm | - | - | - |
* Rain latest hour (hover to see other rain measurements)
** Current wind speed in m/s (hover to see current wind gust speed)